TimeEST,TemperatureF,Dew PointF,Humidity,Sea Level PressureIn,VisibilityMPH,Wind Direction,Wind SpeedMPH,Gust SpeedMPH,PrecipitationIn,Events,Conditions,WindDirDegrees,DateUTC
12:51 AM,24.1,21.0,88,30.18,4.0,Calm,Calm,-,N/A,,Clear,0,2013-02-25 05:51:00
1:51 AM,21.2,19.4,93,30.15,5.0,Calm,Calm,-,N/A,,Scattered Clouds,0,2013-02-25 06:51:00
2:06 AM,21.2,19.4,93,30.15,5.0,South,3.5,-,N/A,,Mostly Cloudy,180,2013-02-25 07:06:00
2:51 AM,21.9,19.9,92,30.19,6.0,South,4.6,-,N/A,,Overcast,190,2013-02-25 07:51:00
3:51 AM,24.1,21.0,88,30.18,7.0,South,3.5,-,N/A,,Overcast,180,2013-02-25 08:51:00
4:51 AM,23.0,19.0,85,30.19,8.0,South,5.8,-,N/A,,Mostly Cloudy,190,2013-02-25 09:51:00
5:51 AM,24.8,19.4,80,30.17,9.0,Calm,Calm,-,N/A,,Overcast,0,2013-02-25 10:51:00
6:51 AM,23.0,19.0,85,30.20,9.0,South,4.6,-,N/A,,Mostly Cloudy,190,2013-02-25 11:51:00
7:51 AM,21.9,18.0,85,30.24,8.0,South,5.8,-,N/A,,Partly Cloudy,190,2013-02-25 12:51:00
8:51 AM,26.1,21.0,81,30.25,9.0,South,5.8,-,N/A,,Clear,180,2013-02-25 13:51:00
9:51 AM,30.9,23.0,72,30.25,10.0,SSW,3.5,-,N/A,,Clear,200,2013-02-25 14:51:00
10:51 AM,33.8,21.2,60,30.23,10.0,SSW,3.5,-,N/A,,Clear,210,2013-02-25 15:51:00
11:51 AM,34.0,21.9,61,30.25,10.0,NNW,5.8,-,N/A,,Scattered Clouds,330,2013-02-25 16:51:00
12:51 PM,34.0,21.9,61,30.25,10.0,NW,8.1,-,N/A,,Partly Cloudy,310,2013-02-25 17:51:00
1:51 PM,34.0,21.9,61,30.24,10.0,North,6.9,-,N/A,,Clear,10,2013-02-25 18:51:00
2:51 PM,34.0,21.0,59,30.22,10.0,NNE,9.2,-,N/A,,Clear,20,2013-02-25 19:51:00
3:51 PM,35.1,21.9,59,30.21,10.0,North,8.1,-,N/A,,Clear,10,2013-02-25 20:51:00
4:51 PM,35.1,21.0,57,30.20,10.0,NNE,9.2,-,N/A,,Clear,30,2013-02-25 21:51:00
5:51 PM,32.0,21.9,66,30.20,10.0,NE,9.2,-,N/A,,Clear,40,2013-02-25 22:51:00
6:51 PM,30.0,23.0,75,30.21,10.0,NE,8.1,-,N/A,,Clear,50,2013-02-25 23:51:00
7:51 PM,28.9,19.9,69,30.20,10.0,ENE,8.1,-,N/A,,Clear,60,2013-02-26 00:51:00
8:51 PM,28.0,19.0,69,30.20,10.0,ENE,8.1,-,N/A,,Clear,60,2013-02-26 01:51:00
9:51 PM,27.0,18.0,69,30.19,10.0,ENE,6.9,-,N/A,,Clear,60,2013-02-26 02:51:00
10:51 PM,27.0,19.0,72,30.14,10.0,East,8.1,-,N/A,,Clear,80,2013-02-26 03:51:00
11:51 PM,27.0,19.0,72,30.16,10.0,Calm,Calm,-,N/A,,Clear,0,2013-02-26 04:51:00